Wind_Gust
17 23 22 17 16 18 19 18 19 18 19 19 19 19 20 21 21 22 23 24 23 23 22 21 20 20 20 21 21 19 19 17 18 17 17 18 18 17 16 16 16 16 15 16 16 17 17 16 15 15 16 15 15 15 16 16 15 15 13 11 12 13 16 18 19 19 19 19 21 21 21 21 21 21 20 20 19 19 19 18 16 22 20 22 18
21 22 21 23 17 18 19 19 19 19 18 19 20 19 19 21 21 23 23 23 22 22 21 20 20 21 21 20 19 19 18 17 16 16 16 16 17 16 16 16 16 16 16 16 15 15 16 16 15 15 15 15 15 15 16 16 14 14 14 14 15 14 14 15 16 17 18 19 19 20 21 20 20 21 21 20 20 19 19 18 15 18 21 17 18
21 20 21 22 18 19 19 19 19 18 19 19 20 20 20 21 21 22 23 23 22 21 20 20 21 21 22 21 19 18 17 16 16 15 15 15 16 16 16 15 16 16 16 16 15 15 15 15 14 14 15 15 15 15 15 16 16 15 14 14 12 11 13 16 17 17 17 18 19 21 21 21 19 19 20 20 19 18 18 18 16 17 23 17 17
24 20 21 21 18 17 18 20 19 18 17 17 18 20 21 20 20 21 22 22 20 20 20 21 20 21 21 20 19 17 17 17 16 15 15 14 15 16 16 16 16 16 16 16 16 15 15 15 14 15 15 15 15 15 16 16 16 12 13 14 13 11 14 13 14 15 16 18 19 17 18 20 20 18 19 19 19 18 17 17 18 19 20 18 18
23 21 20 21 20 19 18 19 19 18 16 17 18 20 21 20 20 20 21 22 20 20 21 21 21 20 20 19 18 18 17 16 14 14 14 13 14 15 15 16 16 15 15 15 15 15 15 15 15 15 14 15 15 16 16 16 16 13 13 14 14 14 13 13 14 15 14 12 11 11 18 19 19 19 18 19 19 18 17 17 18 18 19 18 18
22 20 20 18 18 22 19 19 19 20 17 17 18 19 20 20 21 21 21 21 21 21 22 21 20 18 18 18 17 16 16 15 14 14 15 15 14 13 13 14 15 16 16 15 15 16 15 15 15 15 15 15 15 15 15 15 14 14 14 15 14 14 14 14 14 14 13 12 9 15 17 17 19 20 18 19 18 17 17 17 17 17 17 19 18
22 20 20 20 18 20 17 18 20 20 18 17 17 18 19 20 20 20 20 20 20 19 20 19 18 17 17 17 16 16 16 16 17 16 16 16 15 14 12 12 14 15 16 16 15 15 16 15 15 15 15 15 15 15 15 15 14 14 14 14 13 13 13 13 13 13 11 11 16 16 16 16 16 19 18 18 18 17 16 17 16 16 16 15 15
21 20 19 18 17 19 18 18 20 19 18 18 18 18 18 18 19 19 18 18 18 18 18 18 17 17 16 16 15 15 16 16 17 16 16 16 16 15 12 11 14 15 16 16 15 14 15 16 16 15 15 15 15 15 14 14 13 12 13 13 12 12 11 12 13 13 9 15 14 14 15 15 15 18 16 17 17 17 17 17 16 16 15 17 16
21 19 19 17 18 17 16 17 18 19 19 18 17 17 17 17 18 18 17 18 18 18 18 17 17 16 15 15 15 15 15 15 16 16 15 14 14 14 12 11 11 14 15 15 14 12 14 15 17 16 16 15 15 14 14 14 14 12 12 11 11 11 11 11 11 11 11 14 14 15 14 15 15 16 16 16 17 17 16 16 16 16 15 15 14
18 17 17 17 19 16 14 14 17 20 19 18 18 18 17 17 18 17 17 17 17 17 17 17 17 16 15 15 15 15 15 14 15 15 15 14 14 14 12 12 12 15 14 15 15 14 13 14 17 17 18 17 15 14 14 14 12 11 11 11 10 9 9 10 10 7 12 13 14 13 13 8 15 16 16 16 16 16 14 12 11 12 13 15 15
18 17 16 17 19 15 14 16 14 19 19 18 18 18 18 17 17 17 17 17 16 16 14 16 17 16 16 15 15 15 15 14 14 14 14 13 13 12 11 12 13 15 15 15 16 15 13 14 16 17 17 16 14 13 12 11 9 9 9 9 8 8 8 9 7 13 11 12 12 13 13 9 14 15 13 15 15 16 16 15 15 15 15 15 15
17 16 16 16 16 15 14 14 16 17 19 19 18 18 17 16 17 16 16 15 15 15 14 13 13 15 16 15 15 14 15 14 14 14 14 13 12 11 10 11 12 14 15 15 15 16 14 14 16 17 16 16 14 12 11 10 9 9 9 8 7 4 9 9 10 11 11 12 12 12 16 16 14 17 14 14 15 15 15 15 14 14 15 15 15
17 17 17 16 16 13 13 12 14 15 17 19 18 18 16 15 16 16 15 13 13 14 14 12 12 12 14 15 14 14 15 15 14 14 14 13 13 12 10 10 13 14 15 15 16 16 16 15 16 16 17 16 15 13 10 9 7 7 6 6 4 3 8 10 13 12 11 11 13 12 13 11 13 12 12 13 14 14 14 15 15 14 14 14 15
17 18 17 17 16 16 12 13 12 14 16 17 17 16 16 15 15 14 12 13 13 13 13 13 12 12 12 13 13 13 13 14 15 15 15 14 13 12 11 10 10 14 15 15 15 17 16 15 14 16 16 16 15 13 10 8 7 6 6 6 4 6 8 8 8 11 11 11 10 11 11 12 14 10 12 13 13 13 14 14 14 14 14 14 14
20 17 17 17 18 18 17 12 12 12 11 13 15 16 14 14 14 13 12 12 12 12 13 13 12 12 12 13 13 12 14 13 13 15 16 15 13 12 12 11 10 11 14 14 15 16 16 15 13 12 12 13 13 12 11 9 7 6 5 6 4 8 13 14 14 12 12 12 12 12 13 12 9 7 11 12 12 13 13 13 13 14 14 14 14
17 17 17 17 17 17 17 17 13 12 13 11 13 14 13 13 14 14 13 12 12 12 12 12 12 11 12 12 12 12 14 13 12 13 14 14 14 13 12 11 11 10 11 13 13 14 15 15 14 12 11 12 12 12 10 9 7 6 5 6 5 8 12 7 13 12 12 13 13 12 12 13 10 10 11 12 12 13 12 13 13 13 13 14 14
16 16 17 17 16 15 17 17 15 15 13 14 13 11 13 13 13 14 13 12 12 12 12 11 11 11 11 11 11 12 12 12 12 13 15 15 15 14 12 13 12 11 9 10 12 13 13 13 15 15 12 11 11 11 10 8 8 6 5 6 5 7 10 6 12 11 12 13 13 13 12 14 11 8 11 12 12 13 12 12 13 13 13 13 13
16 16 17 17 16 15 15 16 17 16 16 16 16 11 12 12 13 12 13 12 11 11 10 9 10 10 10 10 12 12 13 12 13 13 14 12 11 12 12 12 12 11 10 9 10 11 12 12 11 14 14 11 10 10 9 7 7 6 4 4 4 5 11 8 10 9 11 11 13 12 12 7 9 9 12 12 12 12 13 12 13 13 12 12 12
16 16 17 17 16 15 14 14 14 14 15 13 14 18 14 12 12 12 12 11 11 11 10 10 11 11 11 10 12 13 14 14 13 12 10 12 10 12 12 11 11 11 11 10 9 10 10 11 11 12 13 12 9 8 7 7 6 6 5 4 2 4 11 10 12 11 10 11 11 12 12 9 8 9 11 12 12 13 12 12 12 13 12 12 13
16 16 16 16 17 15 14 14 14 15 13 14 14 15 14 12 12 11 12 10 10 11 11 10 10 10 11 9 7 12 10 14 13 16 14 9 12 14 12 11 12 11 10 9 8 8 10 10 10 10 11 12 11 8 6 6 7 6 5 5 4 7 15 13 12 12 11 9 10 11 7 8 9 10 12 12 12 13 12 11 12 12 12 12 12
14 14 14 15 16 15 14 14 13 13 14 14 13 12 14 13 10 9 10 9 10 11 12 12 9 9 11 8 6 11 11 11 13 13 11 15 9 10 11 12 11 11 9 8 8 7 10 10 9 10 11 12 11 9 7 7 7 6 5 6 4 12 12 12 12 11 11 10 11 11 7 9 10 11 12 12 12 13 12 11 11 12 12 12 12
15 13 13 14 14 14 13 13 13 13 13 13 13 13 13 13 14 13 13 12 11 9 13 13 11 13 6 10 12 11 11 11 13 10 12 13 13 9 10 13 12 11 8 7 6 5 8 10 11 9 10 11 10 11 9 8 7 6 6 6 5 7 9 11 11 12 12 11 11 9 8 10 11 11 12 11 12 13 12 11 11 10 10 11 11
15 15 13 12 12 12 12 12 13 13 13 12 12 11 12 12 14 15 13 10 13 14 13 13 13 13 13 13 11 10 11 11 11 11 11 10 13 10 9 12 10 10 7 6 6 5 6 9 11 9 11 9 7 7 8 8 9 6 5 7 6 7 8 10 11 10 12 11 12 8 10 11 11 11 12 11 12 12 12 11 11 11 10 9 10
15 15 15 12 12 11 11 11 12 12 13 12 10 11 11 11 11 13 11 11 12 12 12 12 12 12 13 12 11 10 11 10 8 10 9 11 12 7 7 7 8 10 9 8 7 6 6 9 11 13 10 8 8 6 7 7 7 6 6 6 6 7 9 11 11 11 10 11 13 10 9 11 10 11 12 12 12 11 11 11 12 11 10 9 9
15 15 14 12 12 12 12 11 11 11 11 11 11 10 9 11 10 9 10 11 9 8 9 10 11 13 12 11 12 9 10 9 10 12 11 13 10 10 9 12 13 13 8 11 11 12 10 11 14 12 10 11 11 6 6 6 6 7 6 6 6 6 8 9 10 10 10 9 10 8 8 9 10 10 12 12 12 12 11 11 11 12 12 10 8
14 16 15 14 13 14 13 12 10 10 11 10 11 10 11 10 9 11 10 9 8 7 8 10 9 10 12 13 11 10 10 10 8 9 9 8 10 11 12 10 11 12 12 12 12 11 10 10 9 9 8 10 11 8 6 6 6 6 6 6 5 6 8 9 10 10 10 10 10 9 6 9 10 10 11 12 12 12 12 11 11 11 12 10 9
14 15 14 13 13 13 13 13 12 12 11 10 10 10 9 9 9 9 10 9 9 7 8 8 9 9 11 11 12 12 11 10 10 9 9 10 11 10 10 11 12 12 12 12 12 12 12 11 10 9 10 10 11 11 8 7 7 8 6 7 6 6 6 9 10 11 11 11 8 8 6 8 9 10 10 11 11 11 12 12 11 12 11 10 9
15 15 13 13 14 14 13 13 13 13 13 11 12 12 11 11 10 10 9 8 8 11 11 11 8 9 10 11 10 12 12 12 10 10 11 11 14 12 9 9 8 11 12 12 13 13 12 11 10 10 11 12 11 11 9 8 7 7 7 6 7 6 6 7 9 9 10 11 11 10 8 8 8 9 10 10 11 10 11 11 11 11 12 10 9
16 14 14 15 15 14 14 14 13 13 12 11 12 12 11 11 11 8 9 10 11 9 6 7 9 7 8 10 9 9 10 10 13 12 12 14 10 8 9 14 11 11 11 13 13 13 12 11 11 11 10 10 8 8 9 9 7 6 8 8 8 8 7 7 8 10 11 11 12 10 10 9 9 8 11 11 11 11 10 10 9 9 9 10 9
16 17 17 16 15 16 16 16 14 14 13 12 10 10 10 9 9 11 10 10 8 8 7 8 6 6 7 7 8 10 11 12 12 12 11 9 12 13 15 12 16 12 9 13 14 13 12 12 12 12 13 11 10 7 7 8 9 7 8 9 7 9 7 8 8 9 10 11 11 11 9 9 9 9 8 10 12 11 11 10 9 9 9 8 9
12 14 14 15 14 16 14 14 14 13 13 13 11 11 10 9 9 9 10 11 9 10 10 9 8 6 7 8 9 10 12 11 9 10 13 13 10 10 12 13 13 6 9 11 10 11 10 11 12 11 11 12 11 10 7 7 7 9 8 11 8 7 9 8 9 10 11 11 11 11 13 10 9 8 8 7 8 11 11 11 10 9 9 9 8
13 14 12 10 11 13 14 13 14 14 14 13 12 12 12 11 10 10 11 11 10 9 10 8 6 8 8 8 10 14 9 8 9 11 9 7 9 10 13 14 7 9 10 10 9 9 10 11 8 7 7 8 9 9 8 6 6 8 8 10 10 10 10 9 11 11 11 11 11 12 12 14 9 9 9 8 7 8 11 11 10 10 9 10 8
8 9 9 10 11 13 14 13 12 13 14 14 14 12 12 11 11 10 10 11 10 10 11 11 8 7 9 7 9 12 11 9 11 13 10 10 11 13 12 11 8 10 11 9 10 11 8 8 9 8 9 10 8 10 10 7 6 7 7 9 9 12 11 12 11 11 12 12 12 12 12 13 14 10 10 9 8 9 8 10 11 11 10 10 10
11 10 9 11 9 10 12 11 12 13 12 11 11 12 10 9 8 8 8 8 7 7 7 8 7 7 9 9 10 14 10 6 9 13 13 13 13 12 10 10 11 13 12 10 8 10 11 10 8 10 9 10 10 8 11 12 10 6 5 7 8 10 10 13 12 12 11 13 12 11 12 12 13 14 16 12 10 9 9 8 11 12 10 11 11
10 11 13 12 11 10 13 12 12 12 12 10 10 9 8 8 8 8 8 7 8 7 6 6 7 8 7 10 11 12 11 9 8 8 9 10 10 9 9 9 13 12 12 10 11 9 8 11 12 12 9 8 7 6 6 7 7 10 6 6 8 9 10 11 11 12 13 11 11 12 11 12 12 14 15 16 11 11 9 8 10 12 12 12 12
13 12 11 11 12 11 13 15 14 14 13 12 10 9 8 7 8 7 8 7 8 7 7 8 7 8 8 9 9 12 14 12 11 10 9 9 8 7 8 10 12 12 12 12 13 15 10 10 10 9 9 8 7 9 9 9 11 10 8 5 6 7 9 10 11 12 12 11 12 11 11 12 13 14 11 15 14 15 13 11 9 9 12 13 13
11 11 12 11 11 12 12 13 15 14 13 11 10 9 9 8 8 9 9 8 8 9 8 9 9 9 9 10 10 10 12 11 11 11 10 8 8 8 8 7 8 10 12 13 14 14 14 14 13 9 12 10 11 10 10 11 9 11 12 8 7 7 9 9 11 11 11 11 11 12 13 14 14 9 15 16 14 15 14 13 12 11 11 11 13
8 8 9 11 13 11 10 10 11 11 11 12 10 10 10 10 10 10 9 9 8 8 10 10 10 9 9 10 11 12 12 11 10 10 8 9 8 8 7 7 8 9 9 9 10 11 12 12 11 13 14 15 12 11 11 10 11 11 14 13 9 9 10 10 11 10 12 13 12 13 13 12 13 15 15 16 16 15 15 16 13 13 12 11 12
8 8 9 10 11 10 10 10 11 11 12 12 12 12 11 11 11 11 12 11 11 11 11 11 9 10 10 10 10 11 12 11 10 9 10 10 10 8 8 7 7 8 8 8 9 10 11 13 13 12 11 14 14 12 11 8 9 13 16 15 11 13 12 11 10 11 12 12 12 12 12 13 13 14 15 15 15 14 15 14 18 20 22 16 13
7 8 10 11 12 11 10 10 10 11 12 12 12 12 11 11 13 11 12 11 10 11 9 10 9 10 9 9 10 9 11 10 9 9 10 11 10 9 10 9 7 7 9 9 9 9 11 12 12 13 14 12 14 11 9 12 7 10 11 12 12 15 17 14 11 12 12 12 12 11 13 12 13 14 15 16 15 15 14 15 15 18 18 18 17
7 8 9 11 12 14 14 13 10 10 12 13 12 13 13 11 8 9 12 10 11 11 10 9 9 9 9 10 10 10 10 10 9 9 11 12 12 11 10 10 10 11 10 10 12 12 12 11 11 13 15 14 12 15 10 10 8 8 8 11 14 14 15 14 14 12 13 12 10 11 10 11 13 14 15 14 15 15 15 16 16 17 18 16 18
12 10 11 11 11 11 13 13 11 9 10 11 11 9 7 9 10 10 11 11 12 13 12 10 9 9 9 10 10 11 11 10 10 10 10 12 13 13 12 11 12 12 12 13 12 12 11 10 10 9 8 12 11 13 13 13 10 11 7 5 7 14 16 14 12 11 10 11 10 10 9 11 14 11 9 12 13 14 16 15 15 16 17 17 17
12 14 12 11 11 11 10 12 12 12 10 9 10 10 7 7 7 10 10 12 8 7 9 9 9 12 10 10 10 10 11 12 11 12 12 11 12 14 14 14 13 14 14 15 14 14 11 10 8 9 11 7 9 10 12 14 11 8 6 6 6 9 9 13 10 11 8 7 8 11 12 13 13 11 10 10 11 11 13 13 14 14 15 16 16
13 13 12 13 12 12 12 12 13 11 11 9 8 9 10 9 10 11 9 8 11 9 9 8 9 11 12 10 11 9 10 11 12 14 13 13 13 14 13 13 12 11 13 14 14 14 13 12 10 9 10 13 9 7 7 11 10 16 11 10 8 6 6 14 9 10 10 10 6 8 10 12 12 12 11 12 12 11 11 12 13 13 14 15 15
17 17 16 15 13 15 14 15 14 13 11 11 10 11 13 12 13 12 12 13 10 10 10 10 9 10 11 11 11 9 10 11 11 12 14 13 12 13 14 13 13 12 13 14 14 13 13 12 12 11 9 10 11 8 10 8 9 7 7 12 8 8 7 5 8 9 9 11 11 9 8 7 8 8 10 10 9 10 11 13 13 13 14 15 16
19 18 16 17 15 15 15 14 12 12 12 11 11 12 12 13 14 13 13 12 12 11 11 11 10 10 11 9 10 10 11 10 10 12 13 13 13 12 12 13 13 13 13 14 13 13 13 13 12 10 11 10 11 10 10 10 11 13 12 8 8 5 8 7 6 14 10 6 7 9 10 9 9 8 7 7 8 8 9 11 12 14 14 15 16
19 16 16 16 15 15 15 15 14 13 11 12 11 12 12 12 13 12 12 13 14 10 6 6 9 10 9 10 10 9 10 12 10 11 12 13 12 12 12 13 14 14 13 14 15 13 13 13 12 12 12 9 7 11 9 7 6 11 12 10 10 7 5 7 7 5 7 7 8 8 11 11 9 9 7 8 8 7 7 9 10 13 13 14 16
17 17 16 15 17 17 16 16 15 14 12 12 12 11 13 12 11 10 9 11 11 12 10 9 7 8 11 10 10 9 9 10 11 11 12 13 13 14 14 14 15 14 14 15 15 13 12 12 12 12 12 12 11 11 10 10 8 8 10 10 10 9 7 9 7 7 4 8 7 6 8 7 7 8 7 8 8 8 8 8 10 11 12 14 15
19 21 19 16 14 14 15 14 15 14 13 13 12 11 11 12 13 11 10 7 7 9 10 10 10 9 10 9 9 10 10 9 10 11 11 14 14 14 14 14 14 14 15 15 14 15 14 13 13 14 13 13 12 10 10 11 10 10 8 9 9 9 8 7 10 9 7 6 10 8 10 8 7 12 9 11 10 10 8 10 11 12 11 12 14
15 15 14 14 15 15 15 16 17 16 14 14 13 12 11 12 12 11 12 10 9 9 10 11 10 10 12 11 10 10 10 10 10 11 12 14 14 15 15 15 14 14 14 16 15 15 14 15 14 14 13 13 13 13 12 11 11 11 11 9 9 8 6 7 8 10 7 7 8 9 11 13 11 7 9 11 14 13 14 14 13 11 11 13 14
15 17 17 18 17 17 17 18 18 16 15 15 14 14 12 13 14 13 13 12 11 12 12 11 11 10 12 12 12 12 11 11 10 10 10 13 12 13 14 14 14 13 15 14 14 15 15 14 14 14 14 14 14 13 13 13 11 12 12 12 11 10 9 8 10 9 9 10 12 12 11 10 12 15 10 9 12 13 13 14 13 11 12 15 17
Wind_Speed
10 14 13 14 13 15 15 14 14 14 14 15 14 14 17 16 16 17 19 19 18 18 18 16 16 16 16 17 16 15 14 14 14 14 13 13 14 12 12 13 13 13 13 13 13 14 14 13 12 12 12 12 11 10 11 11 10 10 9 8 9 10 13 13 13 14 14 14 15 16 15 15 14 14 14 14 14 15 14 13 11 10 10 13 14
13 13 12 14 14 14 15 14 15 15 15 15 15 14 15 17 17 17 17 18 19 17 16 16 16 16 16 16 16 15 13 12 13 13 12 13 13 13 13 12 12 13 13 13 12 13 13 12 12 11 11 11 11 11 11 11 10 9 9 10 10 10 9 11 11 12 13 13 14 15 15 14 14 14 14 14 14 14 14 12 10 9 9 13 14
13 12 12 14 15 15 15 15 15 14 15 15 15 15 16 17 17 18 18 17 17 17 17 16 17 17 15 15 15 14 13 11 12 13 12 12 12 13 12 12 12 12 13 12 12 12 12 12 11 11 11 11 11 10 10 11 11 10 10 10 9 9 10 10 11 12 12 13 13 15 15 15 14 14 14 14 14 14 14 12 13 13 10 13 13
15 11 11 14 15 14 14 15 15 14 14 14 15 15 15 16 17 17 18 18 17 16 16 16 16 17 16 14 14 14 13 12 12 11 11 11 12 13 13 12 12 12 12 12 12 12 11 11 11 11 11 11 10 10 11 11 11 9 10 10 9 9 11 11 11 11 12 13 14 12 8 10 11 13 14 14 14 14 13 13 14 15 15 14 14
14 12 11 11 12 13 14 15 15 14 13 14 15 16 15 15 16 16 16 17 16 16 16 16 16 17 16 15 14 15 14 13 12 11 11 11 11 12 12 12 13 12 11 12 11 11 11 11 12 11 11 10 10 11 11 11 11 9 9 10 10 10 9 9 9 11 10 9 7 7 7 9 9 12 13 14 14 13 13 13 14 14 14 14 14
13 11 11 10 10 13 15 15 15 14 14 14 15 16 16 15 16 17 17 16 17 17 17 17 16 15 15 14 14 13 13 12 12 12 12 12 10 9 10 11 12 13 12 11 11 11 11 11 12 11 11 11 11 11 11 11 10 10 10 11 10 10 11 10 9 9 9 8 6 5 7 8 8 9 13 13 13 13 13 13 13 13 14 15 14
14 10 11 10 10 12 14 15 15 14 14 14 14 15 16 16 16 16 16 16 16 16 16 16 15 14 14 14 13 13 13 13 13 13 13 12 11 10 8 10 11 12 12 11 11 11 12 11 12 12 11 10 10 10 10 11 10 10 10 10 10 9 10 10 9 9 7 8 5 5 5 7 7 7 12 12 12 12 13 13 12 12 12 11 11
12 10 10 10 9 13 14 15 16 15 13 13 14 14 14 15 15 15 15 15 15 15 14 14 14 13 13 13 12 13 13 13 13 13 12 13 12 11 9 9 11 12 12 12 11 11 11 12 11 11 11 10 10 10 10 11 10 10 10 10 9 8 8 9 9 8 4 6 5 4 5 6 7 7 11 11 12 12 13 13 12 12 12 13 12
11 11 10 9 10 14 13 14 15 16 13 13 13 13 13 13 13 13 13 14 15 15 14 14 14 13 12 12 12 12 12 12 12 12 12 11 11 11 10 8 9 12 12 12 10 9 10 11 12 12 12 11 11 11 11 11 10 9 10 9 8 8 8 8 8 8 5 5 6 5 5 6 7 7 10 11 11 12 12 12 12 13 12 11 11
10 10 9 9 10 12 12 12 15 16 15 13 13 13 13 14 14 13 13 13 14 14 14 14 14 13 12 12 12 12 11 11 11 11 11 11 10 9 10 9 10 12 12 12 11 10 11 11 12 13 13 13 11 11 11 11 9 9 9 9 8 7 7 7 6 4 4 5 6 5 5 4 6 7 10 10 11 11 9 9 9 9 10 12 12
10 9 9 9 12 12 12 13 12 16 16 15 14 13 13 13 14 13 13 13 13 13 12 13 14 13 13 12 12 12 11 11 11 11 11 10 10 8 8 9 11 12 12 12 12 11 10 11 12 13 14 13 11 10 10 9 7 7 7 7 7 7 7 6 3 5 4 5 5 5 6 2 6 7 10 10 10 11 11 11 11 12 12 12 12
9 9 8 8 12 11 11 12 13 14 16 16 15 14 13 12 13 13 12 12 12 12 11 11 11 12 13 12 12 12 12 11 11 11 11 10 9 8 8 9 10 12 11 11 12 11 11 12 13 13 13 13 11 10 9 8 7 7 7 6 5 3 7 4 2 4 5 5 5 5 7 6 7 8 10 10 11 11 11 11 11 11 12 12 12
9 9 9 9 10 11 10 10 12 13 14 15 15 14 13 12 13 12 11 11 10 11 11 10 10 10 11 12 12 12 12 12 11 11 11 10 10 9 8 9 11 11 12 11 11 12 12 12 12 13 13 13 12 10 8 7 6 5 5 4 2 1 6 6 4 4 4 4 5 5 5 4 6 9 9 10 10 10 10 10 10 10 11 11 11
9 9 9 9 8 12 10 9 10 12 13 14 14 13 13 13 12 12 10 9 10 10 10 10 10 10 10 11 11 11 11 12 12 12 11 11 10 9 7 7 9 11 12 12 12 12 12 12 11 12 13 13 11 10 8 6 5 5 4 4 2 4 6 6 3 4 4 4 4 4 5 4 6 8 9 9 9 9 10 10 10 11 10 11 11
11 10 10 9 9 10 13 10 10 10 10 11 13 13 12 11 11 10 10 10 10 10 10 10 10 10 10 10 10 10 11 11 11 12 12 11 10 9 9 7 6 10 11 12 12 13 12 11 10 9 10 10 10 10 9 7 5 4 4 4 2 6 10 5 5 4 4 4 4 5 5 4 7 6 8 9 9 9 10 10 10 11 11 10 11
10 10 10 9 9 9 10 12 11 9 10 7 10 11 11 11 12 11 10 10 10 10 9 9 9 9 9 10 9 10 11 11 10 10 11 11 10 10 9 8 7 7 9 10 11 12 12 12 11 10 9 9 9 9 8 7 6 4 4 4 2 6 10 4 4 4 4 4 4 4 4 5 8 8 8 9 9 9 9 10 10 10 10 11 11
9 9 10 10 10 8 8 9 10 13 10 12 9 9 9 10 11 11 11 10 10 9 9 9 9 9 8 9 9 10 10 10 10 10 11 11 11 10 10 9 8 7 7 8 10 11 10 10 12 11 10 8 9 8 8 6 6 4 4 4 4 5 7 4 4 4 3 5 4 4 4 5 7 7 8 9 9 9 9 9 10 9 10 10 10
9 9 9 9 9 8 8 8 9 9 9 11 9 9 6 10 10 10 10 9 9 9 8 8 8 9 8 8 9 9 10 10 10 10 11 10 10 9 8 9 9 7 6 6 8 9 10 9 9 11 11 9 7 7 6 6 5 5 3 3 3 4 6 5 4 3 3 4 4 4 3 5 7 7 9 9 9 9 9 9 10 9 9 10 10
9 9 9 9 9 8 7 7 8 7 8 6 7 9 10 9 10 10 10 9 8 8 8 8 8 9 9 9 9 9 10 10 10 9 5 7 8 9 9 8 8 7 7 5 6 8 8 9 9 8 9 9 7 6 5 5 5 4 3 3 1 1 7 6 4 4 3 4 3 3 3 7 6 7 8 8 9 10 9 9 9 10 9 9 9
8 8 8 8 9 8 7 6 7 7 6 7 7 8 10 10 10 9 10 8 8 8 8 8 8 8 9 7 6 7 7 7 8 7 11 5 4 7 7 8 8 7 6 5 5 7 8 8 8 8 8 8 8 6 5 4 4 5 3 3 1 4 6 5 5 5 3 3 3 3 5 6 6 7 8 9 9 9 9 8 9 9 9 9 9
6 7 7 7 8 8 8 7 6 8 8 7 6 6 7 10 7 7 8 8 8 8 10 9 7 8 8 6 5 5 5 4 5 6 8 8 8 8 9 9 8 7 6 5 4 5 7 8 8 8 7 7 8 7 6 5 4 4 4 4 1 4 5 5 5 4 4 3 4 3 5 6 7 7 8 8 8 9 9 8 8 8 8 9 9
7 6 7 7 6 7 7 7 6 7 7 6 5 5 6 8 8 7 7 7 8 7 8 7 7 5 5 5 4 3 3 4 6 6 5 6 7 5 7 8 8 7 5 4 4 3 7 8 9 8 8 5 5 4 5 6 5 4 4 3 0 1 3 4 5 4 4 4 4 4 6 7 7 7 8 8 8 10 9 8 8 8 7 8 8
8 7 6 6 6 6 6 6 7 7 7 6 5 5 6 5 7 7 5 7 8 8 6 7 6 6 6 5 4 3 4 4 4 3 2 2 4 8 6 7 5 5 5 4 4 3 5 7 9 8 9 6 1 1 2 2 2 1 1 2 1 1 2 4 5 4 4 4 4 6 7 8 8 8 8 7 8 8 8 8 8 8 7 6 8
8 7 7 5 6 5 6 6 6 6 6 5 5 5 5 5 4 5 4 4 5 5 6 5 5 5 5 4 3 3 3 3 4 6 5 3 5 5 3 3 5 8 6 5 5 4 4 7 8 11 8 4 2 1 1 1 2 1 1 1 1 1 3 4 4 4 3 4 4 8 7 8 8 8 8 8 8 8 8 8 8 8 7 6 6
8 8 6 6 6 6 6 6 6 6 5 5 4 4 4 4 3 3 3 3 3 2 3 3 4 5 5 4 4 3 2 2 3 4 4 5 4 3 3 4 6 6 6 5 4 4 4 4 5 5 3 5 4 0 1 1 1 1 1 1 1 1 2 3 3 3 3 3 3 6 6 7 8 7 8 7 7 8 8 8 8 9 8 6 5
7 7 8 7 7 7 7 6 5 5 5 4 4 4 5 4 4 4 3 2 2 2 2 3 3 4 4 4 4 3 2 3 2 3 3 3 3 4 4 3 4 5 5 5 4 4 3 3 2 3 2 4 5 2 1 1 1 1 1 1 0 1 2 3 3 4 3 3 3 6 4 7 7 8 7 7 7 7 7 8 7 8 8 7 6
7 7 7 6 7 7 7 6 6 6 6 5 4 4 3 3 3 3 3 3 2 2 3 3 3 3 4 4 4 3 3 3 3 3 3 3 4 4 4 4 4 4 4 4 5 4 4 3 3 3 4 4 4 4 2 1 1 0 1 0 0 1 1 2 3 4 4 4 3 6 5 7 8 8 7 7 7 6 7 7 6 7 8 7 6
8 8 7 6 7 8 7 7 6 6 5 5 5 4 4 5 4 3 3 2 1 3 4 3 2 3 3 2 2 3 3 3 2 3 4 4 6 5 2 3 2 4 4 4 5 4 4 4 3 4 4 4 4 4 3 2 1 1 0 0 1 1 1 1 2 3 3 4 4 6 6 6 7 8 8 7 7 6 6 6 6 6 6 7 6
9 8 7 7 8 7 8 8 7 7 6 5 5 5 4 4 4 3 3 4 4 4 0 2 3 2 2 3 3 2 3 4 4 5 5 6 4 3 3 5 4 5 3 4 5 5 5 4 4 4 4 3 3 2 3 3 2 1 1 1 1 1 1 1 2 3 4 4 4 5 7 7 7 7 8 8 7 7 6 6 5 5 5 5 5
9 9 9 8 8 9 9 9 8 7 6 5 4 4 4 3 4 5 4 4 3 3 2 3 2 2 1 1 2 2 3 4 4 4 5 3 1 5 4 4 8 2 3 5 5 4 4 4 5 5 5 4 4 2 2 2 2 2 2 2 1 2 1 2 2 3 3 4 4 4 6 6 7 7 7 7 8 7 7 6 6 5 5 5 5
6 8 7 7 8 8 8 8 7 7 6 6 5 5 4 3 4 3 4 4 3 3 3 3 2 1 1 3 4 4 4 3 3 3 2 1 2 4 4 6 2 0 4 4 3 4 4 4 4 4 4 4 4 3 2 2 2 2 2 3 2 2 2 2 3 3 4 3 4 4 5 7 7 7 7 6 6 8 8 7 6 6 5 6 6
6 7 6 4 5 8 7 7 7 6 6 6 5 5 5 5 4 4 4 3 3 3 4 3 2 2 3 3 5 6 3 1 2 2 4 2 3 3 4 2 2 3 4 3 3 3 4 4 3 2 2 2 3 3 3 2 1 1 2 3 3 3 3 3 3 4 4 4 4 4 5 6 8 7 7 7 6 6 8 8 7 7 6 6 5
3 3 4 4 5 7 6 7 6 6 6 6 5 5 4 4 4 4 4 4 4 4 4 4 3 1 2 2 3 6 5 2 2 3 4 4 4 4 3 2 1 4 5 4 5 4 3 3 3 3 3 2 3 4 3 2 1 1 1 2 2 4 4 4 4 4 5 5 4 4 4 5 6 9 8 7 7 7 7 7 8 8 7 8 7
5 4 4 5 3 4 5 5 6 6 7 5 5 5 4 4 3 3 3 3 2 2 2 2 1 2 2 1 1 4 2 1 1 6 6 5 4 4 5 4 5 7 4 4 4 4 5 5 3 3 3 3 4 3 4 4 3 1 0 1 1 3 3 5 5 4 4 5 4 4 4 4 5 6 7 10 9 7 8 6 8 9 8 8 8
4 5 7 6 5 4 5 5 6 6 6 5 5 4 3 3 3 3 2 2 2 2 2 1 2 2 2 4 5 5 4 2 2 3 4 4 2 3 4 4 6 5 3 4 6 4 4 5 5 5 3 3 2 1 1 2 2 2 1 1 2 2 3 4 4 4 5 4 4 4 4 4 4 5 6 6 9 10 8 7 7 10 10 9 9
7 6 5 5 6 5 7 8 8 7 7 6 5 4 3 2 2 3 3 2 2 2 2 3 2 3 3 3 3 6 5 5 4 3 3 2 2 2 3 4 6 5 5 5 6 6 2 4 4 4 4 3 2 2 1 2 1 1 0 1 0 2 2 3 3 5 5 4 4 4 4 5 5 6 6 6 6 8 11 9 8 8 10 10 9
5 6 6 6 6 6 6 7 9 8 7 6 5 4 3 3 2 3 3 3 2 3 3 3 3 3 3 3 4 4 5 5 4 4 4 3 2 3 3 3 3 5 5 5 6 4 6 6 4 4 4 4 3 1 0 1 2 3 3 3 2 2 3 3 3 3 3 4 4 4 5 6 6 6 6 6 6 6 11 11 10 10 9 9 10
3 3 4 5 6 5 5 4 5 5 5 5 5 4 4 4 3 3 3 3 3 2 3 3 4 3 3 3 5 5 5 5 4 4 3 3 3 2 2 2 3 3 3 4 4 5 6 6 6 6 4 5 5 5 3 2 2 3 4 4 3 3 3 3 4 4 4 5 5 5 5 4 5 6 6 7 7 6 6 10 11 11 10 9 10
3 4 4 4 5 4 4 5 5 6 5 5 6 5 5 5 4 4 5 4 4 3 4 4 3 4 4 4 4 4 5 5 4 4 3 4 3 2 3 3 2 3 3 3 4 4 6 7 6 6 5 5 5 5 3 2 2 3 4 5 4 5 4 4 3 4 5 5 5 5 4 5 5 6 6 7 6 6 7 6 8 9 10 13 11
2 3 5 6 6 5 4 4 4 5 5 5 5 5 4 4 5 5 5 4 4 4 3 3 3 4 3 3 4 3 4 3 3 3 4 4 3 3 4 3 2 2 4 4 4 4 5 6 7 8 7 6 6 4 4 4 2 2 3 4 5 5 7 6 4 5 5 5 5 4 5 4 5 5 7 7 6 6 6 7 7 8 8 11 14
3 3 4 5 6 7 7 7 4 4 5 5 5 5 5 4 3 3 5 4 4 4 4 3 3 3 3 4 4 4 4 4 3 3 4 5 4 4 3 4 4 5 4 3 5 5 5 5 5 6 8 7 6 5 4 3 2 1 1 4 5 5 6 7 7 5 5 4 3 4 4 4 5 6 6 6 6 7 6 7 7 7 8 7 9
6 4 5 6 6 6 7 6 5 4 4 5 4 3 3 3 4 3 4 4 5 5 5 4 3 3 3 4 4 5 5 4 3 4 4 5 5 4 4 4 5 5 5 6 5 5 5 5 4 4 4 5 3 4 5 5 3 4 2 1 2 4 7 7 5 4 3 4 3 3 3 4 5 4 3 4 5 6 6 6 6 7 7 7 8
7 7 6 6 5 6 5 6 5 5 4 3 4 4 2 2 2 3 4 4 2 2 3 3 3 4 4 4 4 4 5 5 4 5 5 4 5 6 6 6 6 6 6 7 7 6 5 5 4 4 5 2 3 2 5 5 3 2 1 3 2 2 3 4 2 4 3 1 2 4 4 5 5 4 3 3 4 4 4 4 5 6 6 7 7
7 7 6 7 5 5 6 6 6 5 5 4 3 4 4 4 5 5 3 3 4 3 3 3 4 5 5 4 4 3 4 5 5 6 6 6 6 6 5 5 5 5 6 6 6 7 6 5 4 4 5 6 2 2 1 5 2 5 3 4 3 3 2 6 3 3 4 1 0 1 3 4 4 5 4 4 4 4 4 4 5 5 6 7 6
9 9 9 8 6 9 8 8 7 6 5 5 4 6 6 6 5 6 6 6 4 4 4 3 3 4 4 5 4 4 4 4 4 5 7 6 6 6 6 6 5 5 5 6 6 5 6 5 5 4 3 4 5 1 3 1 3 1 0 1 2 2 2 2 3 1 3 1 3 2 2 0 1 1 3 3 2 3 4 4 5 5 6 7 7
10 10 9 9 8 8 8 7 6 5 6 6 6 6 6 6 6 6 5 5 5 4 4 4 4 3 4 3 4 4 4 4 4 6 6 6 6 5 6 6 6 5 5 6 6 5 6 6 5 4 5 4 4 3 3 5 6 6 5 2 1 1 3 3 2 3 4 1 2 2 2 3 3 2 1 1 1 1 2 3 4 5 6 7 7
11 9 9 9 9 8 8 8 7 6 5 6 6 6 6 6 7 6 6 6 6 3 1 2 3 4 3 4 4 4 4 5 4 5 5 6 5 5 6 6 6 6 6 6 6 6 6 5 5 5 4 3 2 4 3 2 2 4 4 4 4 3 2 1 2 2 2 1 2 2 2 2 3 3 1 1 1 1 0 1 3 4 5 6 6
10 10 9 8 10 10 9 9 7 7 5 5 6 5 7 6 6 5 4 5 5 5 5 3 2 3 4 4 4 3 3 4 5 5 5 6 6 6 7 7 7 6 6 6 6 5 5 5 5 5 5 4 4 3 3 3 2 2 3 4 5 5 3 3 3 3 1 1 1 1 2 1 1 2 1 2 2 2 2 2 3 4 4 5 5
10 11 11 8 8 8 8 8 8 8 6 7 6 6 5 6 6 5 4 2 2 3 4 4 4 3 5 4 4 4 4 3 4 5 5 7 7 7 7 7 7 6 6 6 6 7 7 6 6 6 6 5 5 4 3 4 3 3 2 3 3 3 2 2 4 3 2 2 3 3 3 1 1 4 0 3 2 2 2 4 4 5 4 4 5
8 8 7 7 8 8 9 10 10 8 7 8 7 7 6 6 6 6 6 4 3 3 4 5 4 4 6 5 4 4 4 4 4 5 6 7 7 7 7 8 7 6 6 7 7 7 7 7 7 7 6 6 5 5 5 4 4 4 4 3 2 2 1 1 2 3 2 2 3 3 4 5 4 1 3 3 3 4 4 3 4 4 4 4 4
8 10 9 10 9 9 10 11 11 8 8 8 8 8 7 6 7 7 7 6 6 6 6 5 4 5 5 5 5 5 4 4 4 4 5 6 6 7 7 7 7 6 6 7 6 7 7 7 6 7 7 7 6 6 6 6 4 5 5 5 4 3 3 3 3 3 3 4 5 5 4 4 5 7 4 3 5 5 4 2 4 4 4 4 5
Wind_Direction
148 138 141 138 146 147 142 134 131 129 128 128 127 122 120 117 115 115 117 117 115 115 117 112 111 109 110 113 113 118 122 125 128 133 141 144 143 127 118 116 119 123 130 132 131 133 134 132 133 128 126 124 125 128 127 126 126 129 130 126 124 122 126 125 120 126 124 118 117 117 114 114 111 110 107 106 105 104 105 106 102 99 98 97 95
147 141 141 143 144 144 142 134 132 130 131 132 130 126 122 121 120 117 115 116 117 116 113 113 112 112 114 117 120 123 127 132 133 138 139 130 130 126 121 123 124 126 129 131 133 134 131 131 128 130 129 125 129 132 130 131 132 123 108 106 107 108 112 122 124 117 115 117 117 115 113 111 111 109 109 109 108 107 106 107 109 97 91 97 96
134 138 142 143 143 145 143 136 132 133 135 134 132 128 126 125 124 121 120 118 116 117 117 116 117 118 117 120 124 128 130 130 128 128 128 130 128 125 125 124 125 125 127 127 132 135 138 134 132 131 132 131 132 132 130 132 130 120 121 115 110 128 126 115 119 122 123 124 120 117 115 115 115 115 112 109 107 104 103 97 93 95 98 97 95
134 137 141 142 139 139 144 139 133 136 137 136 134 132 129 127 125 123 123 121 118 119 120 120 121 123 125 125 124 125 126 125 123 125 125 126 125 124 124 123 122 122 125 128 132 136 137 137 135 137 136 134 133 132 134 129 127 120 121 110 99 109 121 125 123 122 128 128 126 123 117 116 112 113 117 112 110 109 105 99 94 97 103 98 91
129 138 139 142 142 146 146 139 134 135 138 137 135 134 132 129 127 125 124 121 120 121 123 125 126 127 129 130 129 129 128 126 124 124 125 126 123 122 122 121 118 119 121 128 132 133 135 137 139 137 137 136 136 133 130 129 112 96 112 118 98 95 112 112 120 130 114 95 106 131 120 115 113 116 115 113 109 106 104 103 102 102 101 97 93
130 136 139 137 141 147 147 139 135 135 138 138 136 136 135 133 130 130 129 126 127 128 129 131 130 129 129 130 128 126 124 122 119 110 98 94 92 92 115 115 117 120 123 127 130 134 135 137 139 139 140 137 135 131 130 127 121 119 117 102 106 107 106 114 113 117 104 97 132 112 118 116 115 115 114 112 110 107 106 104 103 102 100 98 93
131 134 141 141 144 149 140 140 138 136 142 141 138 137 137 136 134 133 132 128 127 128 129 129 130 130 130 130 129 126 122 119 112 107 106 107 105 95 97 114 121 122 123 126 130 133 135 138 138 139 137 136 134 131 132 127 125 111 101 111 116 111 114 113 110 101 102 144 121 119 110 114 114 115 118 114 111 107 104 103 99 97 96 96 94
131 136 138 144 143 141 142 141 142 140 141 140 139 138 137 136 135 134 132 128 127 128 128 128 128 130 130 127 127 127 123 125 123 120 119 121 125 127 129 119 123 123 125 128 130 134 139 138 137 134 134 131 129 131 131 127 116 102 100 99 101 108 109 106 105 104 108 126 125 113 115 111 108 113 117 115 113 110 106 104 103 100 95 93 98
132 136 139 142 143 141 147 141 145 139 141 141 139 139 138 136 134 135 134 131 131 131 132 132 131 130 129 129 129 130 129 131 128 126 126 127 128 127 129 124 123 126 128 130 133 138 141 141 137 133 131 128 127 126 126 116 103 89 93 93 96 103 105 99 98 115 130 123 126 114 116 114 113 112 117 114 111 108 106 104 103 101 96 94 91
126 133 137 142 143 141 143 140 145 143 142 143 143 142 143 142 140 139 138 134 133 134 135 135 133 132 133 134 136 137 136 133 131 130 128 129 132 136 132 131 128 131 132 132 137 144 146 139 133 134 129 125 122 120 114 106 96 93 96 97 100 99 91 88 92 108 123 127 119 119 97 91 112 112 116 113 108 104 97 82 84 92 95 92 87
127 132 139 141 141 142 143 144 155 146 145 145 146 145 145 143 143 141 140 139 138 137 136 137 137 137 138 139 141 142 139 136 134 135 133 131 136 141 137 139 138 135 135 137 142 146 145 131 132 133 128 127 120 112 111 103 83 73 64 71 98 105 88 78 142 138 127 121 121 115 113 121 108 112 113 111 108 107 101 100 100 98 99 96 87
122 130 138 142 137 142 147 153 154 149 147 147 146 146 147 146 144 145 144 143 139 137 136 135 138 139 141 141 141 141 141 141 140 140 138 137 137 145 143 138 132 135 133 135 139 143 136 136 133 131 130 131 127 113 101 84 69 54 45 41 35 69 121 113 162 126 138 133 120 126 128 119 104 109 123 116 106 103 105 108 104 98 97 96 90
125 133 138 142 144 142 151 150 151 152 149 150 148 146 147 146 148 148 145 141 138 139 139 139 141 144 144 145 144 143 144 145 145 147 146 145 146 146 148 142 141 139 136 133 131 133 131 131 135 137 136 133 126 112 102 92 86 71 49 38 44 62 149 152 151 147 139 133 131 133 122 112 110 119 116 114 113 105 100 102 103 101 97 95 90
129 134 139 143 146 145 152 155 151 153 149 152 148 145 146 146 146 146 143 141 143 144 144 147 150 149 151 150 149 148 148 150 152 153 151 151 150 147 149 146 138 138 138 140 135 131 132 136 142 142 138 133 126 122 118 107 88 68 46 36 37 180 162 173 158 150 143 137 137 126 128 131 118 122 122 117 114 111 102 97 97 97 99 96 92
133 136 141 143 145 151 154 156 151 149 147 147 145 144 145 143 140 140 142 144 147 147 149 152 154 157 158 155 155 153 153 155 158 156 156 156 153 150 150 152 148 139 141 141 139 135 132 132 130 127 126 126 128 129 126 122 105 77 50 37 58 189 177 185 178 157 150 150 141 147 135 134 100 128 126 123 114 107 104 102 98 96 98 98 95
127 134 138 140 143 147 155 155 149 137 137 139 136 141 143 146 145 145 145 148 149 150 150 153 157 159 160 158 157 158 160 161 163 160 159 158 155 155 153 155 162 154 144 143 140 138 135 130 122 118 116 120 124 129 131 126 115 86 52 32 46 178 176 202 177 167 160 157 150 148 139 118 138 149 134 120 115 108 110 108 104 104 102 102 100
127 131 133 136 141 145 150 152 144 141 135 135 142 125 146 150 149 150 150 149 152 153 154 154 159 161 162 160 161 162 165 165 162 159 158 157 161 160 158 162 166 168 157 147 141 137 133 135 133 129 126 125 128 130 132 127 109 90 58 31 52 148 152 183 178 179 171 160 157 159 151 137 166 153 136 126 122 118 114 114 109 109 107 98 94
130 130 133 135 140 142 142 143 142 146 150 130 135 142 172 149 150 152 148 148 152 154 153 152 160 166 164 160 163 166 169 168 164 159 162 163 162 164 164 167 169 170 170 161 144 136 137 135 136 133 130 131 131 132 128 116 106 95 66 46 20 134 153 167 184 181 179 165 167 161 162 127 143 151 139 133 130 129 128 121 116 109 111 109 104
136 135 134 138 136 136 132 139 134 140 141 137 141 144 186 148 148 153 150 148 151 155 155 161 166 170 167 165 172 175 176 177 158 156 147 162 163 166 166 171 171 173 176 175 152 139 138 143 143 135 134 133 135 128 116 110 107 105 65 33 64 192 161 179 193 178 177 189 171 168 155 153 182 166 144 140 140 133 128 126 123 120 116 114 110
140 141 139 140 139 135 137 138 137 140 149 152 159 156 165 153 149 153 155 152 154 157 163 166 167 172 171 160 171 173 183 179 153 167 156 159 198 163 179 171 173 174 177 178 165 142 140 146 137 137 139 135 128 120 115 105 104 88 63 33 17 191 183 203 189 184 184 181 185 174 140 190 181 164 147 148 145 133 133 126 126 125 124 118 115
139 142 139 141 143 135 139 137 140 142 144 145 147 149 155 148 146 147 158 162 157 167 171 169 164 173 175 162 147 176 170 163 158 184 156 177 190 191 175 169 173 173 173 178 174 156 141 137 140 135 137 133 128 122 108 100 90 72 52 51 60 193 196 192 187 182 188 178 188 178 159 193 179 165 155 157 146 138 133 140 132 126 126 124 121
146 142 148 145 144 139 139 143 140 145 144 140 145 152 151 159 156 160 169 167 167 164 177 177 175 174 164 164 188 173 161 158 181 187 180 172 188 203 173 176 176 172 171 172 175 180 146 139 134 133 132 136 127 143 126 96 72 38 49 59 204 178 182 190 196 192 182 185 191 153 186 182 187 168 164 159 148 144 145 140 130 128 128 124 120
147 141 144 149 145 143 142 147 149 148 145 143 146 148 156 162 161 174 176 177 175 184 184 183 183 178 178 180 179 171 173 166 176 172 155 121 187 204 186 190 157 187 175 174 192 187 159 141 134 131 122 110 109 128 142 129 101 54 27 45 38 165 171 194 199 207 192 180 201 154 194 186 190 176 168 163 155 154 155 143 137 131 133 129 128
142 144 147 145 145 147 149 147 151 151 150 145 148 146 151 160 171 166 171 174 182 181 186 186 186 189 183 175 178 173 173 168 140 163 115 168 234 217 179 165 175 196 181 194 198 203 201 142 136 128 137 152 149 224 168 146 117 69 50 44 42 126 180 186 205 208 212 175 200 161 196 196 204 183 173 171 165 165 159 147 144 140 136 138 134
139 139 144 153 154 150 149 157 151 152 147 140 145 144 152 158 165 151 159 164 175 171 184 201 198 192 182 183 180 167 170 144 154 176 180 186 209 191 182 199 211 192 181 208 205 193 210 194 159 163 167 157 150 212 258 180 132 99 66 40 72 153 186 190 200 209 212 192 189 168 200 203 216 195 180 179 173 172 163 156 152 144 141 141 142
134 149 154 155 159 161 160 155 150 149 149 147 150 156 156 159 169 159 136 124 132 163 196 203 204 197 191 190 167 162 174 164 164 173 172 190 192 201 194 199 202 206 195 207 208 206 203 208 176 153 164 161 148 160 249 286 212 125 82 43 16 175 194 195 196 208 211 215 183 184 211 209 221 210 191 186 180 176 174 167 162 150 146 150 149
160 160 161 157 159 164 163 158 154 154 158 151 158 167 165 165 159 165 161 147 165 165 207 220 200 198 204 191 174 166 174 171 173 169 183 193 202 198 192 194 203 210 206 212 210 207 213 205 189 190 173 174 158 151 175 212 287 236 129 236 323 252 201 202 205 213 215 211 200 180 216 213 216 220 199 194 186 187 187 179 172 157 154 156 157
174 166 168 160 161 163 163 162 159 165 161 161 170 184 172 168 161 178 144 137 215 225 223 215 235 219 211 192 189 177 172 175 175 176 186 204 207 191 162 174 205 231 208 217 213 210 213 216 205 191 184 175 181 157 160 179 220 281 120 236 267 256 241 217 211 227 228 222 223 187 220 214 213 237 211 199 191 192 192 191 182 169 168 163 168
169 164 167 166 169 159 164 164 161 164 159 166 178 180 175 180 170 188 156 210 220 219 167 277 234 227 212 203 184 175 186 184 189 193 208 215 204 84 69 35 318 241 230 223 224 214 214 215 206 205 196 175 173 162 167 167 190 232 268 217 273 267 249 239 224 217 231 234 226 196 203 215 217 228 230 205 199 193 193 191 187 182 181 178 177
167 166 167 171 169 167 169 166 163 162 159 162 160 176 177 183 192 187 182 197 181 158 193 222 234 228 204 196 184 204 205 213 203 199 201 219 176 76 95 170 225 222 237 229 221 214 224 217 208 201 190 176 165 160 186 179 192 198 249 258 228 269 251 245 234 227 230 235 234 220 193 226 218 224 244 230 210 199 194 190 192 193 187 192 188
149 165 174 168 169 171 166 165 162 159 157 162 164 168 177 190 187 207 197 203 181 181 200 220 181 139 106 62 57 45 59 13 30 74 198 186 98 145 193 203 146 123 250 253 242 221 227 236 213 201 203 192 165 147 193 203 215 209 220 253 236 236 241 236 250 242 236 233 236 236 210 210 222 219 233 247 241 215 196 196 198 197 187 190 195
173 174 174 158 154 172 159 162 160 159 159 163 165 171 181 187 181 176 171 158 153 179 204 196 152 131 101 86 74 62 74 191 162 147 238 150 202 202 214 224 151 207 215 248 245 229 229 245 278 287 259 229 178 163 173 214 228 250 248 245 239 224 228 231 241 236 244 239 234 228 231 214 204 212 220 234 243 238 219 198 202 199 189 196 199
176 149 153 160 161 163 157 160 158 162 165 164 168 174 186 186 181 197 185 172 189 196 227 214 176 97 45 40 85 65 35 46 129 167 246 214 209 201 202 189 199 227 205 191 242 232 208 231 243 245 241 235 218 189 166 165 181 216 267 255 248 231 220 227 232 236 238 237 237 234 230 221 216 192 207 222 226 235 241 219 202 205 204 192 204
159 154 151 168 146 153 155 150 159 161 163 164 166 171 177 173 174 174 162 169 201 200 241 257 249 113 133 61 42 92 247 189 104 138 188 217 204 208 213 210 182 227 195 186 205 226 191 180 184 227 205 214 212 205 199 178 128 138 105 302 274 269 236 224 224 228 229 236 233 233 231 228 219 220 205 200 215 222 229 241 213 207 215 199 208
151 161 175 157 150 138 150 144 153 153 154 155 160 164 160 164 165 156 143 148 144 152 138 110 97 89 115 151 137 159 165 177 216 170 185 235 217 204 205 199 168 197 186 182 201 227 187 181 182 193 182 188 191 153 225 227 203 149 129 356 335 305 252 236 214 220 219 223 226 228 231 231 228 225 217 210 195 208 218 226 228 210 220 213 209
182 166 147 140 138 138 154 154 157 152 151 150 149 144 149 151 156 150 130 132 135 131 117 104 95 91 96 109 126 148 163 168 170 156 204 218 210 191 205 204 181 170 175 186 200 216 236 233 202 213 204 192 194 193 219 247 291 308 222 240 295 326 282 249 225 218 211 207 222 220 222 230 225 223 224 223 208 197 196 211 225 220 220 220 213
175 160 156 148 138 146 147 149 155 149 135 123 121 118 125 131 126 114 129 136 142 136 130 125 119 111 118 115 126 131 135 146 150 165 173 176 169 210 208 198 203 201 197 178 202 197 222 230 242 228 238 228 214 175 246 282 272 245 239 253 259 309 312 296 254 226 182 202 216 220 222 227 222 215 217 225 216 206 181 201 210 223 224 224 216
173 165 152 149 146 144 146 145 132 129 128 126 120 115 111 112 110 106 104 102 100 104 125 135 124 128 123 112 121 118 121 130 138 146 129 128 140 176 159 174 195 207 206 195 210 193 196 206 222 236 233 231 229 236 233 242 264 273 265 259 275 283 300 295 276 244 217 203 204 221 227 225 222 220 223 223 222 207 201 189 204 216 225 223 214
187 163 145 131 130 129 136 140 132 127 117 112 110 102 103 95 94 101 97 91 89 96 125 129 118 112 102 104 97 100 113 125 136 134 113 108 118 138 129 130 174 183 159 184 204 195 188 193 210 218 228 221 226 232 224 222 266 293 288 286 279 284 302 302 278 243 230 221 216 214 212 217 219 216 222 225 220 213 205 203 199 213 219 215 217
190 166 147 143 133 129 134 132 136 129 121 120 127 121 121 123 118 113 97 89 97 107 110 112 117 104 94 88 83 79 86 96 108 115 108 112 113 113 96 91 105 156 152 142 162 184 195 174 201 211 214 216 216 216 213 210 202 246 281 293 286 298 295 304 285 249 238 228 216 205 216 214 214 216 219 224 222 215 207 203 206 212 222 202 208
202 191 164 152 153 151 149 148 146 146 140 139 141 140 132 117 104 109 111 113 110 114 110 109 100 88 76 81 79 80 81 85 85 102 106 111 105 101 106 91 85 97 117 149 156 149 134 139 176 197 205 206 206 199 201 203 201 294 305 286 288 286 302 294 277 252 237 245 234 218 216 215 219 216 219 216 218 215 212 209 210 216 218 225 200
199 193 187 168 164 153 156 140 145 161 153 152 145 140 143 144 145 138 124 123 132 136 130 120 100 92 82 76 78 80 81 80 78 85 96 109 112 103 88 94 99 85 83 94 102 113 133 148 158 139 175 193 170 176 165 147 206 204 163 311 332 320 309 312 283 255 245 236 238 243 247 245 242 237 221 219 226 227 222 215 215 216 219 222 227
181 190 185 170 169 163 152 145 158 164 166 156 151 141 123 94 110 128 125 110 47 38 95 95 102 99 71 69 69 73 81 78 75 77 82 89 99 99 94 90 86 94 92 88 96 103 119 138 155 153 158 143 119 144 173 197 190 176 207 112 226 136 209 283 333 326 335 275 250 248 242 241 242 239 228 229 229 229 233 232 230 225 225 228 230
180 191 186 184 170 172 159 161 165 171 161 170 132 94 93 92 73 91 70 84 121 118 104 107 106 105 91 75 72 66 74 80 80 88 83 75 81 89 94 88 81 76 84 82 77 78 79 88 114 130 147 146 126 107 251 207 205 161 193 224 149 141 118 238 209 279 303 44 221 213 226 247 240 229 230 233 230 226 226 230 234 232 233 235 236
187 186 181 184 180 179 170 169 168 171 167 156 140 126 118 105 100 91 95 94 103 124 131 124 111 106 107 87 73 63 75 83 79 79 88 84 81 86 88 84 80 74 77 77 68 56 56 60 68 87 93 119 122 89 21 15 202 263 321 130 125 187 186 125 132 281 281 254 67 109 93 212 223 228 231 228 218 212 223 227 227 231 228 229 230
192 187 178 185 182 174 171 169 163 167 166 157 150 146 146 141 145 142 145 144 146 162 164 153 147 134 99 95 88 71 84 83 82 87 89 92 85 86 91 93 88 79 76 79 76 69 57 54 37 42 69 57 101 115 83 47 40 34 6 20 358 77 151 147 194 184 204 172 148 40 60 85 71 81 60 111 189 183 191 229 219 231 231 229 231
194 169 178 189 186 176 172 164 168 171 170 160 162 153 150 161 167 169 164 165 160 170 128 124 139 119 114 106 95 84 85 95 86 91 92 92 92 88 88 88 86 81 79 81 75 69 64 53 47 54 55 53 46 104 107 62 83 54 31 30 30 33 15 218 190 138 212 155 209 158 108 51 16 5 356 63 51 78 341 278 243 242 229 228 231
171 168 183 185 185 180 173 170 172 171 173 164 172 170 162 167 164 168 169 177 169 159 166 150 119 130 136 125 119 110 99 98 106 101 102 101 98 94 93 92 88 84 83 81 82 80 79 70 61 63 61 56 50 64 69 45 36 58 20 30 27 15 21 8 5 328 358 318 169 142 162 13 38 32 54 52 354 330 309 282 258 233 228 233 232
166 181 185 180 175 178 176 168 173 173 170 177 172 178 172 167 169 167 179 174 128 136 151 151 152 149 146 133 131 117 110 104 107 113 110 113 110 109 103 99 94 89 86 87 85 82 79 77 71 65 63 62 59 56 58 49 33 39 11 41 22 23 22 44 32 25 335 248 271 314 331 350 101 135 194 294 304 304 306 296 291 287 262 247 246
175 172 169 166 178 177 179 176 182 181 169 178 179 173 176 166 171 177 183 169 155 142 161 160 162 165 160 151 140 134 130 122 115 117 119 120 121 119 114 109 106 100 91 93 94 89 83 81 74 71 68 68 61 54 54 53 47 41 30 21 22 4 342 3 25 8 334 343 303 314 344 354 333 275 306 302 325 324 310 288 283 288 288 275 274
166 175 177 180 178 181 180 185 186 180 173 179 180 178 179 179 180 180 185 173 165 160 159 164 165 172 172 162 157 142 140 132 129 122 122 128 125 122 118 115 110 110 108 103 94 93 90 88 85 78 69 67 67 64 63 53 52 48 39 32 30 22 353 324 322 320 315 293 290 278 286 271 286 301 290 310 311 295 282 296 300 288 277 264 263